DLH2281 LFKB-EDDM

Flight info

Callsign DLH2281
Flight time 1h 3m
Altitude 35000
Route MOULE L146 ELB DCT BETMU/N0430F360 DCT BORMI DCT NAXAV DCT BEXOR DCT SOTOV/N0359F240 T101 BETOS BETOS1A
Aircraft A320/M-SDE2E3FGIJ1LORWXYZ/HB1

Departure

Time 2026-05-08 16:15
Airport Bastia-Poretta International airport (LFKB)

Arrival

Time 2026-05-08 17:18
Airport Munich Airport (EDDM)
Time Latitude Longitude Altitude Speed Heading
2026-05-08 15:49 42.54829 9.48174 33 ft 0 kts 282°
2026-05-08 16:05 42.54828 9.48174 33 ft 0 kts 282°
2026-05-08 16:05 42.54826 9.48192 33 ft 2 kts 282°
2026-05-08 16:05 42.54823 9.48212 33 ft 2 kts 282°
2026-05-08 16:06 42.54820 9.48229 33 ft 0 kts 282°
2026-05-08 16:06 42.54818 9.48245 33 ft 2 kts 254°
2026-05-08 16:06 42.54826 9.48263 32 ft 2 kts 221°
2026-05-08 16:06 42.54839 9.48272 32 ft 2 kts 187°
2026-05-08 16:07 42.54849 9.48272 32 ft 0 kts 165°
2026-05-08 16:07 42.54845 9.48273 32 ft 3 kts 167°
2026-05-08 16:07 42.54816 9.48285 32 ft 2 kts 162°
2026-05-08 16:07 42.54813 9.48287 32 ft 0 kts 162°
2026-05-08 16:09 42.54812 9.48287 32 ft 0 kts 162°
2026-05-08 16:09 42.54808 9.48289 32 ft 1 kts 162°
2026-05-08 16:09 42.54789 9.48297 32 ft 4 kts 162°
2026-05-08 16:09 42.54754 9.48311 32 ft 5 kts 162°
2026-05-08 16:10 42.54711 9.48329 32 ft 7 kts 162°
2026-05-08 16:10 42.54659 9.48351 33 ft 8 kts 162°
2026-05-08 16:10 42.54595 9.48377 32 ft 10 kts 162°
2026-05-08 16:10 42.54517 9.48411 31 ft 12 kts 161°
2026-05-08 16:11 42.54428 9.48416 31 ft 13 kts 187°
2026-05-08 16:11 42.54332 9.48445 31 ft 14 kts 163°
2026-05-08 16:11 42.54229 9.48488 30 ft 14 kts 163°
2026-05-08 16:11 42.54169 9.48525 30 ft 9 kts 140°
2026-05-08 16:12 42.54132 9.48604 30 ft 8 kts 105°
2026-05-08 16:12 42.54129 9.48674 30 ft 6 kts 78°
2026-05-08 16:12 42.54135 9.48701 30 ft 0 kts 68°
2026-05-08 16:13 42.54136 9.48703 30 ft 0 kts 67°
2026-05-08 16:13 42.54147 9.48730 29 ft 5 kts 55°
2026-05-08 16:13 42.54182 9.48779 28 ft 8 kts 40°
2026-05-08 16:14 42.54251 9.48798 26 ft 11 kts 343°
2026-05-08 16:14 42.54452 9.48713 27 ft 64 kts 343°
2026-05-08 16:14 42.55115 9.48436 26 ft 133 kts 342°
2026-05-08 16:14 42.56131 9.48033 341 ft 160 kts 344°
2026-05-08 16:15 42.57214 9.47806 1056 ft 160 kts 12°
2026-05-08 16:15 42.58043 9.48667 1775 ft 161 kts 66°
2026-05-08 16:15 42.58213 9.50151 2506 ft 162 kts 82°
2026-05-08 16:15 42.58359 9.51650 3193 ft 164 kts 78°
2026-05-08 16:16 42.58576 9.53224 3707 ft 179 kts 76°
2026-05-08 16:16 42.58839 9.54938 4200 ft 196 kts 76°
2026-05-08 16:16 42.59145 9.56837 4660 ft 217 kts 76°
2026-05-08 16:16 42.59486 9.58909 5153 ft 238 kts 76°
2026-05-08 16:17 42.59864 9.61191 5726 ft 257 kts 76°
2026-05-08 16:17 42.60263 9.63605 6373 ft 271 kts 76°
2026-05-08 16:17 42.60678 9.66104 7229 ft 276 kts 77°
2026-05-08 16:17 42.61096 9.68627 8135 ft 279 kts 77°
2026-05-08 16:18 42.61517 9.71169 8999 ft 282 kts 77°
2026-05-08 16:18 42.61950 9.73778 9843 ft 286 kts 77°
2026-05-08 16:18 42.62390 9.76418 10577 ft 294 kts 77°
2026-05-08 16:18 42.62864 9.79185 11189 ft 305 kts 76°
2026-05-08 16:19 42.63349 9.81991 11914 ft 311 kts 76°
2026-05-08 16:19 42.63843 9.84868 12652 ft 316 kts 76°
2026-05-08 16:19 42.64340 9.87764 13343 ft 322 kts 76°
2026-05-08 16:19 42.64849 9.90728 14037 ft 327 kts 76°
2026-05-08 16:20 42.65369 9.93759 14759 ft 330 kts 76°
2026-05-08 16:20 42.65883 9.96758 15440 ft 333 kts 76°
2026-05-08 16:20 42.66410 9.99853 16101 ft 338 kts 76°
2026-05-08 16:20 42.66937 10.02949 16722 ft 342 kts 76°
2026-05-08 16:21 42.67471 10.06097 17341 ft 346 kts 76°
2026-05-08 16:21 42.68014 10.09304 17955 ft 350 kts 76°
2026-05-08 16:21 42.68555 10.12509 18555 ft 354 kts 76°
2026-05-08 16:21 42.69105 10.15777 19139 ft 358 kts 76°
2026-05-08 16:22 42.69662 10.19089 19711 ft 362 kts 76°
2026-05-08 16:22 42.70219 10.22406 20254 ft 366 kts 76°
2026-05-08 16:22 42.70789 10.25808 20778 ft 371 kts 76°
2026-05-08 16:22 42.71359 10.29216 21247 ft 376 kts 76°
2026-05-08 16:23 42.71942 10.32704 21757 ft 381 kts 76°
2026-05-08 16:23 42.72780 10.36097 22212 ft 383 kts 58°
2026-05-08 16:23 42.74488 10.38829 22678 ft 380 kts 33°
2026-05-08 16:23 42.76816 10.40463 23176 ft 373 kts 11°
2026-05-08 16:24 42.79339 10.41079 23692 ft 371 kts
2026-05-08 16:24 42.81906 10.41568 24188 ft 375 kts
2026-05-08 16:24 42.84478 10.42064 24676 ft 378 kts
2026-05-08 16:24 42.87083 10.42584 25168 ft 381 kts
2026-05-08 16:25 42.89700 10.43122 25683 ft 383 kts
2026-05-08 16:25 42.92331 10.43673 26170 ft 385 kts
2026-05-08 16:25 42.94993 10.44235 26617 ft 388 kts
2026-05-08 16:25 42.97680 10.44805 27046 ft 391 kts
2026-05-08 16:26 43.00353 10.45373 27491 ft 393 kts
2026-05-08 16:26 43.03058 10.45952 27919 ft 396 kts
2026-05-08 16:26 43.05786 10.46537 28321 ft 399 kts
2026-05-08 16:26 43.08527 10.47124 28735 ft 401 kts
2026-05-08 16:27 43.11306 10.47721 29135 ft 403 kts
2026-05-08 16:27 43.14063 10.48313 29511 ft 406 kts
2026-05-08 16:27 43.16843 10.48913 29885 ft 408 kts
2026-05-08 16:27 43.19645 10.49518 30266 ft 410 kts
2026-05-08 16:28 43.22494 10.50132 30637 ft 412 kts
2026-05-08 16:28 43.25299 10.50735 31010 ft 414 kts
2026-05-08 16:28 43.28160 10.51353 31379 ft 416 kts
2026-05-08 16:28 43.31015 10.51972 31702 ft 418 kts
2026-05-08 16:29 43.33894 10.52596 32037 ft 420 kts
2026-05-08 16:29 43.36792 10.53225 32357 ft 422 kts
2026-05-08 16:29 43.39665 10.53849 32659 ft 424 kts
2026-05-08 16:29 43.42590 10.54485 32955 ft 426 kts
2026-05-08 16:30 43.45541 10.55129 33279 ft 428 kts
2026-05-08 16:30 43.48452 10.55762 33556 ft 429 kts
2026-05-08 16:30 43.51436 10.56413 33827 ft 431 kts
2026-05-08 16:30 43.54386 10.57056 34085 ft 433 kts
2026-05-08 16:31 43.57364 10.57704 34322 ft 435 kts
2026-05-08 16:31 43.60351 10.58355 34542 ft 436 kts
2026-05-08 16:31 43.63335 10.59007 34741 ft 438 kts
2026-05-08 16:31 43.66372 10.59670 34936 ft 440 kts
2026-05-08 16:32 43.69367 10.60325 35154 ft 441 kts
2026-05-08 16:32 43.72407 10.60993 35365 ft 442 kts
2026-05-08 16:32 43.75447 10.61662 35580 ft 442 kts
2026-05-08 16:32 43.78474 10.62328 35813 ft 442 kts
2026-05-08 16:33 43.81510 10.62997 35974 ft 443 kts
2026-05-08 16:33 43.84539 10.63667 36003 ft 445 kts
2026-05-08 16:33 43.90624 10.65011 36006 ft 445 kts
2026-05-08 16:34 43.96733 10.66364 36010 ft 447 kts
2026-05-08 16:34 44.02877 10.67725 36022 ft 447 kts
2026-05-08 16:35 44.08992 10.69087 36024 ft 445 kts
2026-05-08 16:35 44.15110 10.70448 36021 ft 445 kts
2026-05-08 16:36 44.21202 10.71805 36030 ft 447 kts
2026-05-08 16:36 44.27327 10.73178 36036 ft 446 kts
2026-05-08 16:37 44.33452 10.74552 36037 ft 446 kts
2026-05-08 16:37 44.39555 10.75922 36028 ft 446 kts
2026-05-08 16:38 44.45668 10.77300 36020 ft 446 kts
2026-05-08 16:38 44.51801 10.78683 36008 ft 445 kts
2026-05-08 16:39 44.57902 10.80064 36002 ft 446 kts
2026-05-08 16:39 44.63991 10.81445 36002 ft 446 kts
2026-05-08 16:40 44.70116 10.82866 35996 ft 447 kts
2026-05-08 16:40 44.76220 10.84375 35995 ft 447 kts
2026-05-08 16:41 44.82349 10.85898 35991 ft 448 kts
2026-05-08 16:42 44.91537 10.88182 35966 ft 447 kts
2026-05-08 16:42 44.97613 10.89698 35994 ft 447 kts
2026-05-08 16:43 45.03763 10.91231 35991 ft 447 kts
2026-05-08 16:43 45.09889 10.92765 35991 ft 448 kts
2026-05-08 16:44 45.15984 10.94291 35997 ft 449 kts
2026-05-08 16:44 45.22169 10.95844 35999 ft 450 kts
2026-05-08 16:45 45.28284 10.97382 36006 ft 450 kts
2026-05-08 16:45 45.34420 10.98930 36007 ft 449 kts
2026-05-08 16:46 45.40599 11.00493 36011 ft 450 kts
2026-05-08 16:46 45.46759 11.02054 36012 ft 451 kts
2026-05-08 16:47 45.52875 11.03608 36017 ft 451 kts
2026-05-08 16:47 45.59070 11.05185 36025 ft 451 kts
2026-05-08 16:48 45.65241 11.06759 36027 ft 452 kts
2026-05-08 16:48 45.71434 11.08343 36029 ft 452 kts
2026-05-08 16:49 45.77606 11.09927 36029 ft 452 kts
2026-05-08 16:49 45.83775 11.11513 36033 ft 452 kts
2026-05-08 16:50 45.89939 11.13100 36029 ft 452 kts
2026-05-08 16:50 45.96110 11.14695 36032 ft 453 kts
2026-05-08 16:51 46.02317 11.16305 36042 ft 454 kts
2026-05-08 16:51 46.08442 11.18335 36045 ft 455 kts 10°
2026-05-08 16:52 46.14604 11.20582 36042 ft 456 kts 10°
2026-05-08 16:52 46.20735 11.22822 36042 ft 456 kts 10°
2026-05-08 16:53 46.29989 11.26195 36050 ft 457 kts 10°
2026-05-08 16:53 46.36120 11.28434 36045 ft 458 kts 10°
2026-05-08 16:54 46.42337 11.30328 35691 ft 456 kts
2026-05-08 16:54 46.45462 11.30810 35261 ft 455 kts 359°
2026-05-08 16:54 46.48629 11.30962 34704 ft 458 kts 355°
2026-05-08 16:55 46.51802 11.30776 33859 ft 460 kts 351°
2026-05-08 16:55 46.54935 11.30263 33330 ft 453 kts 347°
2026-05-08 16:55 46.58039 11.29568 32842 ft 447 kts 346°
2026-05-08 16:55 46.61097 11.28843 32373 ft 443 kts 346°
2026-05-08 16:56 46.64115 11.28121 31922 ft 438 kts 346°
2026-05-08 16:56 46.67082 11.27416 31477 ft 434 kts 346°
2026-05-08 16:56 46.70056 11.26716 31021 ft 430 kts 346°
2026-05-08 16:56 46.72966 11.26032 30561 ft 427 kts 346°
2026-05-08 16:57 46.75880 11.25352 30165 ft 421 kts 346°
2026-05-08 16:57 46.78770 11.24675 30114 ft 421 kts 346°
2026-05-08 16:57 46.84514 11.23328 30049 ft 419 kts 347°
2026-05-08 16:58 46.87391 11.22654 29387 ft 419 kts 347°
2026-05-08 16:58 46.90281 11.21974 28337 ft 424 kts 347°
2026-05-08 16:58 46.93173 11.21419 27545 ft 422 kts 352°
2026-05-08 16:58 46.96066 11.21194 27023 ft 415 kts 356°
2026-05-08 16:59 46.98951 11.21277 26557 ft 409 kts 359°
2026-05-08 16:59 47.01735 11.21462 26123 ft 403 kts
2026-05-08 16:59 47.04541 11.21668 25681 ft 398 kts
2026-05-08 16:59 47.07267 11.21866 25254 ft 392 kts
2026-05-08 17:00 47.09982 11.22058 24810 ft 387 kts
2026-05-08 17:00 47.12640 11.22241 24358 ft 382 kts
2026-05-08 17:00 47.15269 11.22422 23925 ft 377 kts
2026-05-08 17:00 47.17866 11.22599 23500 ft 372 kts
2026-05-08 17:01 47.20420 11.22772 23083 ft 367 kts
2026-05-08 17:01 47.22961 11.22943 22650 ft 363 kts
2026-05-08 17:01 47.25463 11.23114 22235 ft 360 kts
2026-05-08 17:01 47.27922 11.23281 21824 ft 356 kts
2026-05-08 17:02 47.30393 11.23447 21416 ft 352 kts
2026-05-08 17:02 47.32844 11.23614 21009 ft 349 kts
2026-05-08 17:02 47.35233 11.23774 20601 ft 347 kts
2026-05-08 17:02 47.37651 11.23938 20193 ft 348 kts
2026-05-08 17:03 47.40150 11.24106 19776 ft 375 kts
2026-05-08 17:03 47.42827 11.24287 19325 ft 391 kts
2026-05-08 17:03 47.45517 11.24474 18857 ft 392 kts
2026-05-08 17:03 47.48238 11.24664 18406 ft 390 kts
2026-05-08 17:04 47.50928 11.24851 17950 ft 388 kts
2026-05-08 17:04 47.53621 11.25037 17505 ft 386 kts
2026-05-08 17:04 47.56301 11.25126 17026 ft 383 kts 359°
2026-05-08 17:04 47.58944 11.25120 16570 ft 380 kts 358°
2026-05-08 17:05 47.61549 11.25098 16137 ft 377 kts 358°
2026-05-08 17:05 47.64157 11.25079 15674 ft 375 kts 358°
2026-05-08 17:05 47.66768 11.25062 15215 ft 372 kts 358°
2026-05-08 17:05 47.69320 11.25048 14757 ft 370 kts 358°
2026-05-08 17:06 47.71881 11.25057 14328 ft 368 kts
2026-05-08 17:06 47.74411 11.25569 13874 ft 367 kts 12°
2026-05-08 17:06 47.76821 11.26709 13415 ft 366 kts 19°
2026-05-08 17:06 47.79209 11.28056 12965 ft 364 kts 20°
2026-05-08 17:07 47.81557 11.29407 12527 ft 361 kts 20°
2026-05-08 17:07 47.83868 11.30723 12101 ft 359 kts 19°
2026-05-08 17:07 47.86211 11.32040 11663 ft 356 kts 19°
2026-05-08 17:07 47.88551 11.33145 11218 ft 353 kts 11°
2026-05-08 17:08 47.90965 11.33672 10783 ft 349 kts
2026-05-08 17:08 47.93351 11.33897 10395 ft 342 kts
2026-05-08 17:08 47.95718 11.34071 10057 ft 333 kts
2026-05-08 17:08 47.97959 11.34239 9801 ft 322 kts
2026-05-08 17:09 48.00177 11.34415 9447 ft 315 kts
2026-05-08 17:09 48.02350 11.34594 9134 ft 307 kts
2026-05-08 17:09 48.04450 11.34773 8832 ft 300 kts
2026-05-08 17:09 48.06499 11.35082 8491 ft 296 kts
2026-05-08 17:10 48.08489 11.35814 8161 ft 292 kts 17°
2026-05-08 17:10 48.10387 11.36767 7802 ft 285 kts 19°
2026-05-08 17:10 48.12225 11.37738 7346 ft 278 kts 19°
2026-05-08 17:10 48.14012 11.38686 6931 ft 269 kts 20°
2026-05-08 17:11 48.15752 11.39607 6583 ft 261 kts 20°
2026-05-08 17:11 48.17445 11.40499 6256 ft 260 kts 20°
2026-05-08 17:11 48.19156 11.41399 5928 ft 258 kts 20°
2026-05-08 17:11 48.20824 11.42277 5658 ft 255 kts 20°
2026-05-08 17:12 48.22481 11.43147 5470 ft 248 kts 20°
2026-05-08 17:12 48.24085 11.43988 5374 ft 235 kts 20°
2026-05-08 17:12 48.25570 11.44766 5344 ft 223 kts 20°
2026-05-08 17:12 48.27002 11.45518 5304 ft 212 kts 20°
2026-05-08 17:13 48.28353 11.46227 5262 ft 201 kts 20°
2026-05-08 17:13 48.29669 11.46919 5215 ft 198 kts 20°
2026-05-08 17:13 48.30949 11.47631 5100 ft 196 kts 31°
2026-05-08 17:13 48.31862 11.49065 5018 ft 193 kts 66°
2026-05-08 17:14 48.32229 11.51015 4839 ft 195 kts 79°
2026-05-08 17:14 48.32419 11.52971 4651 ft 187 kts 81°
2026-05-08 17:14 48.32565 11.54895 4387 ft 180 kts 82°
2026-05-08 17:14 48.32693 11.56705 4059 ft 172 kts 82°
2026-05-08 17:15 48.32819 11.58456 3711 ft 169 kts 81°
2026-05-08 17:15 48.32944 11.60183 3397 ft 163 kts 81°
2026-05-08 17:15 48.33065 11.61825 3179 ft 153 kts 81°
2026-05-08 17:15 48.33179 11.63359 2976 ft 144 kts 81°
2026-05-08 17:16 48.33289 11.64823 2827 ft 140 kts 81°
2026-05-08 17:16 48.33397 11.66257 2642 ft 137 kts 80°
2026-05-08 17:16 48.33506 11.67687 2465 ft 137 kts 81°
2026-05-08 17:16 48.33612 11.69101 2278 ft 136 kts 81°
2026-05-08 17:17 48.33720 11.70515 2100 ft 136 kts 81°
2026-05-08 17:17 48.33827 11.71930 1923 ft 136 kts 82°
2026-05-08 17:17 48.33933 11.73331 1737 ft 135 kts 82°
2026-05-08 17:17 48.34040 11.74726 1562 ft 133 kts 82°
2026-05-08 17:18 48.34140 11.76017 1485 ft 100 kts 83°
2026-05-08 17:18 48.34192 11.76667 1483 ft 43 kts 84°
2026-05-08 17:18 48.34222 11.77102 1481 ft 41 kts 84°
2026-05-08 17:18 48.34302 11.77500 1475 ft 39 kts 59°
2026-05-08 17:19 48.34426 11.77757 1476 ft 16 kts 54°
2026-05-08 17:19 48.34465 11.77835 1475 ft 0 kts 52°
2026-05-08 17:20 48.34470 11.77845 1475 ft 2 kts 52°
2026-05-08 17:20 48.34486 11.77875 1474 ft 4 kts 53°
2026-05-08 17:20 48.34513 11.77934 1474 ft 8 kts 55°
2026-05-08 17:20 48.34555 11.78020 1473 ft 11 kts 58°
2026-05-08 17:21 48.34574 11.78141 1473 ft 12 kts 83°
2026-05-08 17:21 48.34586 11.78290 1473 ft 15 kts 83°
2026-05-08 17:21 48.34598 11.78457 1473 ft 15 kts 83°
2026-05-08 17:21 48.34611 11.78621 1474 ft 16 kts 83°
2026-05-08 17:22 48.34624 11.78787 1475 ft 16 kts 84°
2026-05-08 17:22 48.34637 11.78967 1474 ft 18 kts 83°
2026-05-08 17:22 48.34652 11.79157 1474 ft 18 kts 83°
2026-05-08 17:22 48.34668 11.79362 1471 ft 20 kts 84°
2026-05-08 17:23 48.34685 11.79572 1469 ft 20 kts 83°
2026-05-08 17:23 48.34724 11.79707 1468 ft 14 kts 17°
2026-05-08 17:23 48.34825 11.79697 1468 ft 14 kts 353°
2026-05-08 17:23 48.34903 11.79684 1468 ft 3 kts 354°
2026-05-08 17:24 48.34918 11.79682 1468 ft 0 kts 354°
2026-05-08 17:24 48.34924 11.79681 1468 ft 2 kts 354°
2026-05-08 17:24 48.34954 11.79673 1468 ft 6 kts 341°
2026-05-08 17:25 48.34995 11.79620 1468 ft 9 kts 291°
2026-05-08 17:25 48.35021 11.79533 1468 ft 10 kts 334°
2026-05-08 17:25 48.35092 11.79514 1468 ft 11 kts 354°
2026-05-08 17:25 48.35137 11.79502 1468 ft 4 kts 311°
2026-05-08 17:26 48.35140 11.79442 1468 ft 6 kts 263°
2026-05-08 17:26 48.35136 11.79389 1468 ft 2 kts 264°
2026-05-08 17:26 48.35134 11.79365 1468 ft 1 kts 264°
2026-05-08 17:26 48.35133 11.79356 1468 ft 0 kts 264°